Location: La Brionne
(46.1728°N, 1.7849°E)
Time: 09:05:20
(UTC+00:00)

Cosmos 2061 Rocket - Pass Details

Date: 16 June 2021
Orbit: 965 x 1013 km, 82.9° (Epoch: 02 August)

Event Time Altitude Azimuth Distance (km) Brightness Sun altitude
Rises 21:16:05 0° 354° (N) 3,761 8.2 -11.8°
Reaches altitude 10° 21:18:43 10° 360° (N) 2,806 7.3 -12.1°
Maximum altitude 21:25:01 53° 76° (ENE) 1,223 4.4 -12.7°
Enters shadow 21:29:46 18° 148° (SSE) 2,257 5.2 -13.2°
